Date String (YYYY-MM-DD hh:mm:ss) UTC,Instrument flags,Ambient pressure (hPa),Sample flow (lpm),Bypass flow (lpm),Sample temperature (°C),Ambient temperature (°C),ASC tube jacket temperature (°C),LED temperature (°C),Box temperature (°C),Sample RH (%),Span deviation,Mass concentration (μg/m³),Mass concentration (μg/m³),Mass concentration (μg/m³)
DateTimeUTC,F1_M11,P_M11,Q1_M11,Q2_M11,T1_M11,T2_M11,T3_M11,T4_M11,T5_M11,U1_M11,ZSPAN_M11,X0_M11,X2_M11,X1_M11
2022-02-17 19:00:00,,0827.1,4.99,0.00,21.4,20.8,00.0,30.5,23.0,08.6,0000.0,0006.85,0004.86,0004.65
2022-02-17 19:01:00,,0827.1,4.99,0.00,21.3,20.8,00.0,30.5,23.0,08.6,0000.0,0006.69,0004.86,0004.66
2022-02-17 19:02:00,,0827.0,5.00,0.00,21.3,20.7,00.0,30.4,23.0,08.5,0000.0,0006.71,0004.88,0004.68
2022-02-17 19:03:00,,0827.0,5.00,0.00,21.3,21.1,00.0,30.4,23.0,08.5,0000.0,0006.64,0004.90,0004.71
2022-02-17 19:04:00,,0827.0,5.01,0.00,21.5,22.1,00.0,30.5,23.4,08.6,0000.0,0007.03,0004.95,0004.73
2022-02-17 19:05:00,,0827.0,4.98,0.00,21.7,22.8,00.0,30.5,23.7,08.8,0000.0,0007.92,0005.00,0004.76
2022-02-17 19:06:00,,0827.0,5.00,0.00,21.7,22.5,00.0,30.6,23.7,08.5,0000.0,0008.31,0005.02,0004.78
2022-02-17 19:07:00,,0827.0,5.01,0.00,21.7,22.3,00.0,30.6,23.6,08.6,0000.0,0008.30,0005.03,0004.79
2022-02-17 19:08:00,,0826.9,5.00,0.00,21.7,22.0,00.0,30.6,23.5,08.7,0000.0,0008.32,0005.05,0004.82
2022-02-17 19:09:00,,0827.0,5.01,0.00,21.7,21.8,00.0,30.6,23.4,08.6,0000.0,0008.34,0005.08,0004.85
2022-02-17 19:10:00,,0826.9,5.00,0.00,21.7,21.6,00.0,30.6,23.4,08.8,0000.0,0008.40,0005.10,0004.86
2022-02-17 19:11:00,,0826.9,5.01,0.00,21.7,21.5,00.0,30.6,23.4,08.8,0000.0,0008.46,0005.13,0004.89
2022-02-17 19:12:00,,0826.9,5.00,0.00,21.7,21.4,00.0,30.6,23.4,08.9,0000.0,0008.50,0005.16,0004.92
2022-02-17 19:13:00,,0826.8,4.99,0.00,21.6,21.3,00.0,30.6,23.3,08.8,0000.0,0008.53,0005.18,0004.94
2022-02-17 19:14:00,,0826.8,5.01,0.00,21.6,21.2,00.0,30.6,23.2,08.7,0000.0,0008.57,0005.19,0004.95
2022-02-17 19:15:00,,0826.7,5.00,0.00,21.6,21.1,00.0,30.6,23.2,08.8,0000.0,0008.57,0005.20,0004.96
2022-02-17 19:16:00,,0826.7,4.99,0.00,21.6,21.1,00.0,30.6,23.2,08.8,0000.0,0007.85,0005.19,0004.96
2022-02-17 19:17:00,,0826.7,5.00,0.00,21.5,21.0,00.0,30.6,23.2,08.9,0000.0,0007.47,0005.21,0004.97
2022-02-17 19:18:00,,0826.7,5.01,0.00,21.5,21.0,00.0,30.6,23.2,09.0,0000.0,0007.50,0005.23,0004.98
2022-02-17 19:19:00,,0826.7,5.00,0.00,21.5,21.0,00.0,30.6,23.2,09.2,0000.0,0007.55,0005.23,0004.97
2022-02-17 19:20:00,,0826.7,5.00,0.00,21.5,21.0,00.0,30.6,23.1,09.2,0000.0,0007.62,0005.22,0004.95
2022-02-17 19:21:00,,0826.7,5.00,0.00,21.5,20.9,00.0,30.6,23.1,09.0,0000.0,0007.63,0005.22,0004.95
2022-02-17 19:22:00,,0826.7,4.99,0.00,21.5,20.9,00.0,30.6,23.1,09.0,0000.0,0007.64,0005.22,0004.94
2022-02-17 19:23:00,,0826.6,5.00,0.00,21.4,20.7,00.0,30.6,23.0,09.1,0000.0,0008.16,0005.21,0004.93
2022-02-17 19:24:00,,0826.6,5.02,0.00,21.4,20.7,00.0,30.5,23.0,09.2,0000.0,0008.38,0005.21,0004.91
2022-02-17 19:25:00,,0826.6,4.99,0.00,21.4,20.7,00.0,30.5,22.9,09.2,0000.0,0008.67,0005.22,0004.90
2022-02-17 19:26:00,,0826.6,5.00,0.00,21.3,20.7,00.0,30.5,22.9,09.4,0000.0,0008.51,0005.22,0004.89
2022-02-17 19:27:00,,0826.7,4.99,0.00,21.3,20.6,00.0,30.5,22.9,09.2,0000.0,0008.59,0005.24,0004.90
2022-02-17 19:28:00,,0826.6,5.00,0.00,21.3,20.6,00.0,30.4,22.9,09.2,0000.0,0008.69,0005.26,0004.91
2022-02-17 19:29:00,,0826.6,5.00,0.00,21.3,21.3,00.0,30.5,23.0,09.2,0000.0,0008.89,0005.26,0004.92
2022-02-17 19:30:00,,0826.6,4.99,0.00,21.5,22.3,00.0,30.5,23.4,09.3,0000.0,0008.99,0005.30,0004.94
2022-02-17 19:31:00,,0826.5,5.01,0.00,21.7,23.0,00.0,30.6,23.7,09.3,0000.0,0009.01,0005.34,0004.96
2022-02-17 19:32:00,,0826.5,5.00,0.00,21.8,22.7,00.0,30.6,23.7,09.2,0000.0,0009.02,0005.37,0004.98
2022-02-17 19:33:00,,0826.5,4.99,0.00,21.8,22.4,00.0,30.6,23.6,09.3,0000.0,0009.22,0005.38,0005.00
2022-02-17 19:34:00,,0826.5,5.00,0.00,21.7,22.1,00.0,30.6,23.5,09.2,0000.0,0009.00,0005.45,0005.03
2022-02-17 19:35:00,,0826.5,5.00,0.00,21.7,21.8,00.0,30.6,23.4,09.3,0000.0,0008.99,0005.50,0005.07
2022-02-17 19:36:00,,0826.5,5.00,0.00,21.7,21.6,00.0,30.6,23.3,09.1,0000.0,0008.64,0005.49,0005.09
2022-02-17 19:37:00,,0826.5,5.00,0.00,21.6,21.4,00.0,30.6,23.3,09.2,0000.0,0008.69,0005.52,0005.11
2022-02-17 19:38:00,,0826.5,5.00,0.00,21.6,21.3,00.0,30.6,23.2,09.3,0000.0,0008.73,0005.57,0005.13
2022-02-17 19:39:00,,0826.5,5.01,0.00,21.6,21.2,00.0,30.6,23.2,09.1,0000.0,0008.68,0005.56,0005.14
2022-02-17 19:40:00,,0826.5,5.00,0.00,21.5,21.1,00.0,30.6,23.2,09.3,0000.0,0008.64,0005.61,0005.16
2022-02-17 19:41:00,,0826.4,5.00,0.00,21.5,21.0,00.0,30.6,23.1,09.4,0000.0,0008.63,0005.62,0005.18
2022-02-17 19:42:00,,0826.5,5.00,0.00,21.5,20.9,00.0,30.6,23.1,09.4,0000.0,0008.78,0005.66,0005.21
2022-02-17 19:43:00,,0826.5,4.99,0.00,21.4,20.8,00.0,30.6,23.0,09.3,0000.0,0009.11,0005.67,0005.21
2022-02-17 19:44:00,,0826.5,5.00,0.00,21.4,20.8,00.0,30.6,23.0,09.2,0000.0,0009.05,0005.69,0005.21
2022-02-17 19:45:00,,0826.5,5.01,0.00,21.4,20.8,00.0,30.5,23.0,09.3,0000.0,0008.68,0005.63,0005.19
2022-02-17 19:46:00,,0826.5,4.99,0.00,21.3,20.7,00.0,30.5,22.9,09.4,0000.0,0008.68,0005.63,0005.19
2022-02-17 19:47:00,,0826.5,4.99,0.00,21.3,20.7,00.0,30.5,22.9,09.4,0000.0,0008.77,0005.68,0005.22
2022-02-17 19:48:00,,0826.4,5.01,0.00,21.3,20.6,00.0,30.5,22.9,09.4,0000.0,0008.85,0005.73,0005.27
2022-02-17 19:49:00,,0826.4,5.01,0.00,21.2,20.6,00.0,30.4,22.8,09.7,0000.0,0008.86,0005.76,0005.31
2022-02-17 19:50:00,,0826.4,5.00,0.00,21.2,20.6,00.0,30.4,22.8,09.9,0000.0,0009.24,0005.83,0005.36
2022-02-17 19:51:00,,0826.3,5.00,0.00,21.2,20.5,00.0,30.4,22.8,09.9,0000.5,0009.47,0005.87,0005.39
2022-02-17 19:52:00,,0826.3,4.99,0.00,21.2,20.5,00.0,30.4,22.8,09.5,0000.0,0009.83,0005.87,0005.40
2022-02-17 19:53:00,,0826.3,5.00,0.00,21.2,20.6,00.0,30.4,22.8,09.7,0000.0,0009.76,0005.88,0005.40
2022-02-17 19:54:00,,0826.2,5.02,0.00,21.2,20.6,00.0,30.3,22.8,09.6,0000.0,0009.48,0005.91,0005.43
2022-02-17 19:55:00,,0826.3,5.00,0.00,21.2,20.6,00.0,30.3,22.8,09.8,0000.0,0009.48,0005.96,0005.49
2022-02-17 19:56:00,,0826.2,4.99,0.00,21.2,20.7,00.0,30.3,22.8,10.2,0000.0,0009.57,0006.04,0005.56
2022-02-17 19:57:00,,0826.3,5.00,0.00,21.3,21.6,00.0,30.4,23.1,10.1,0000.0,0009.57,0006.08,0005.60
2022-02-17 19:58:00,,0826.3,5.00,0.00,21.5,22.5,00.0,30.4,23.5,09.9,0000.0,0009.63,0006.14,0005.64
2022-02-17 19:59:00,,0826.3,4.99,0.00,21.6,22.5,00.0,30.4,23.6,09.9,0000.0,0009.72,0006.19,0005.68
